Time,TemperatureF,DewpointF,PressureIn,WindDirection,WindDirectionDegrees,WindSpeedMPH,WindSpeedGustMPH,Humidity,HourlyPrecipIn,Conditions,Clouds,dailyrainin,SoftwareType,DateUTC
2013-07-04 00:00:00,66.6,48.0,25.70,South,180,5.8,10.5,52,0.00,,,0.00,Rainwise IP-100,2013-07-04 06:00:00,
2013-07-04 00:05:00,66.5,48.0,25.70,SE,135,4.0,13.1,52,0.00,,,0.00,Rainwise IP-100,2013-07-04 06:05:00,
2013-07-04 00:10:00,66.5,48.0,25.70,SSE,157,3.0,11.4,52,0.00,,,0.00,Rainwise IP-100,2013-07-04 06:10:00,
2013-07-04 00:15:00,66.4,48.0,25.70,South,180,8.2,11.7,53,0.00,,,0.00,Rainwise IP-100,2013-07-04 06:15:00,
2013-07-04 00:20:00,66.2,48.0,25.70,SSW,202,2.6,10.7,53,0.00,,,0.00,Rainwise IP-100,2013-07-04 06:20:00,
2013-07-04 00:25:00,66.0,48.0,25.70,SSE,157,6.1,9.1,53,0.00,,,0.00,Rainwise IP-100,2013-07-04 06:25:00,
2013-07-04 00:30:00,65.7,48.0,25.70,SSE,157,5.1,11.0,54,0.00,,,0.00,Rainwise IP-100,2013-07-04 06:30:00,
2013-07-04 00:35:00,65.4,48.0,25.70,SSE,157,6.5,9.6,54,0.00,,,0.00,Rainwise IP-100,2013-07-04 06:35:00,
2013-07-04 00:40:00,65.1,48.0,25.70,SSE,157,4.2,8.6,55,0.00,,,0.00,Rainwise IP-100,2013-07-04 06:40:00,
2013-07-04 00:45:00,64.8,48.0,25.70,SSE,157,7.0,8.9,55,0.00,,,0.00,Rainwise IP-100,2013-07-04 06:45:00,
2013-07-04 00:50:00,64.5,48.0,25.70,SSE,157,6.8,9.1,56,0.00,,,0.00,Rainwise IP-100,2013-07-04 06:50:00,
2013-07-04 00:55:00,64.4,48.0,25.70,SSE,157,4.4,9.6,56,0.00,,,0.00,Rainwise IP-100,2013-07-04 06:55:00,
2013-07-04 01:00:00,64.2,48.0,25.70,SSE,157,5.4,9.6,56,0.00,,,0.00,Rainwise IP-100,2013-07-04 07:00:00,
2013-07-04 01:05:00,64.2,48.0,25.70,South,180,6.1,9.1,57,0.00,,,0.00,Rainwise IP-100,2013-07-04 07:05:00,
2013-07-04 01:10:00,64.2,48.0,25.70,SSE,157,6.3,10.7,56,0.00,,,0.00,Rainwise IP-100,2013-07-04 07:10:00,
2013-07-04 01:15:00,64.2,48.0,25.70,South,180,6.3,8.4,56,0.00,,,0.00,Rainwise IP-100,2013-07-04 07:15:00,
2013-07-04 01:20:00,64.1,48.0,25.70,SE,135,2.3,7.2,56,0.00,,,0.00,Rainwise IP-100,2013-07-04 07:20:00,
2013-07-04 01:25:00,63.9,48.0,25.70,SSE,157,4.0,7.9,56,0.00,,,0.00,Rainwise IP-100,2013-07-04 07:25:00,
2013-07-04 01:30:00,63.7,48.0,25.70,SSE,157,0.0,6.3,57,0.00,,,0.00,Rainwise IP-100,2013-07-04 07:30:00,
2013-07-04 01:35:00,63.5,48.0,25.69,SE,135,1.2,4.9,57,0.00,,,0.00,Rainwise IP-100,2013-07-04 07:35:00,
2013-07-04 01:40:00,63.3,48.0,25.69,SE,135,2.3,4.4,57,0.00,,,0.00,Rainwise IP-100,2013-07-04 07:40:00,
2013-07-04 01:45:00,63.1,48.0,25.69,SSE,157,2.3,5.8,58,0.00,,,0.00,Rainwise IP-100,2013-07-04 07:45:00,
2013-07-04 01:50:00,62.7,48.0,25.69,SE,135,1.4,5.8,59,0.00,,,0.00,Rainwise IP-100,2013-07-04 07:50:00,
2013-07-04 01:55:00,62.4,48.0,25.69,SE,135,2.6,4.9,59,0.00,,,0.00,Rainwise IP-100,2013-07-04 07:55:00,
2013-07-04 01:59:00,62.3,48.0,25.69,SE,135,4.0,5.8,60,0.00,,,0.00,Rainwise IP-100,2013-07-04 07:59:00,
2013-07-04 02:04:00,62.0,48.0,25.69,ESE,112,3.3,6.1,60,0.00,,,0.00,Rainwise IP-100,2013-07-04 08:04:00,
2013-07-04 02:09:00,61.8,48.0,25.69,ESE,112,3.0,5.8,61,0.00,,,0.00,Rainwise IP-100,2013-07-04 08:09:00,
2013-07-04 02:14:00,61.7,48.0,25.69,SSE,157,2.8,7.0,61,0.00,,,0.00,Rainwise IP-100,2013-07-04 08:14:00,
2013-07-04 02:19:00,61.5,48.0,25.69,ESE,112,1.9,5.8,61,0.00,,,0.00,Rainwise IP-100,2013-07-04 08:19:00,
2013-07-04 02:24:00,61.3,48.0,25.68,SE,135,2.3,6.3,62,0.00,,,0.00,Rainwise IP-100,2013-07-04 08:24:00,
2013-07-04 02:29:00,61.3,48.0,25.69,SSE,157,5.1,6.3,61,0.00,,,0.00,Rainwise IP-100,2013-07-04 08:29:00,
2013-07-04 02:34:00,61.4,48.0,25.68,SSE,157,2.3,6.3,61,0.00,,,0.00,Rainwise IP-100,2013-07-04 08:34:00,
2013-07-04 02:39:00,61.4,48.0,25.69,ESE,112,2.1,6.1,61,0.00,,,0.00,Rainwise IP-100,2013-07-04 08:39:00,
2013-07-04 02:44:00,61.6,47.5,25.68,ESE,112,3.0,8.2,60,0.00,,,0.00,Rainwise IP-100,2013-07-04 08:44:00,
2013-07-04 02:49:00,61.7,47.5,25.69,ESE,112,4.7,7.9,60,0.00,,,0.00,Rainwise IP-100,2013-07-04 08:49:00,
2013-07-04 02:54:00,61.7,47.5,25.69,SE,135,3.5,8.9,60,0.00,,,0.00,Rainwise IP-100,2013-07-04 08:54:00,
2013-07-04 02:59:00,61.6,47.0,25.69,SSE,157,5.8,8.6,59,0.00,,,0.00,Rainwise IP-100,2013-07-04 08:59:00,
2013-07-04 03:04:00,61.4,47.0,25.68,South,180,6.5,9.6,59,0.00,,,0.00,Rainwise IP-100,2013-07-04 09:04:00,
2013-07-04 03:09:00,61.2,47.0,25.68,SSE,157,4.9,9.8,59,0.00,,,0.00,Rainwise IP-100,2013-07-04 09:09:00,
2013-07-04 03:14:00,60.8,47.0,25.68,ESE,112,5.8,9.8,60,0.00,,,0.00,Rainwise IP-100,2013-07-04 09:14:00,
2013-07-04 03:19:00,60.5,47.0,25.68,ESE,112,4.0,8.9,60,0.00,,,0.00,Rainwise IP-100,2013-07-04 09:19:00,
2013-07-04 03:24:00,60.2,46.0,25.68,ESE,112,3.3,8.6,60,0.00,,,0.00,Rainwise IP-100,2013-07-04 09:24:00,
2013-07-04 03:29:00,60.0,47.0,25.68,ESE,112,6.1,9.8,61,0.00,,,0.00,Rainwise IP-100,2013-07-04 09:29:00,
2013-07-04 03:34:00,60.1,47.0,25.68,ESE,112,4.9,8.9,61,0.00,,,0.00,Rainwise IP-100,2013-07-04 09:34:00,
2013-07-04 03:39:00,60.0,47.0,25.68,SE,135,2.6,8.6,61,0.00,,,0.00,Rainwise IP-100,2013-07-04 09:39:00,
2013-07-04 03:44:00,59.7,46.0,25.68,SSE,157,1.6,6.3,61,0.00,,,0.00,Rainwise IP-100,2013-07-04 09:44:00,
2013-07-04 03:49:00,59.5,47.0,25.68,SSE,157,2.1,6.1,62,0.00,,,0.00,Rainwise IP-100,2013-07-04 09:49:00,
2013-07-04 03:54:00,59.2,46.0,25.68,SE,135,3.5,6.3,62,0.00,,,0.00,Rainwise IP-100,2013-07-04 09:54:00,
2013-07-04 03:59:00,59.0,46.0,25.68,ESE,112,3.3,5.4,62,0.00,,,0.00,Rainwise IP-100,2013-07-04 09:59:00,
2013-07-04 04:04:00,58.9,47.0,25.68,SE,135,2.6,6.1,63,0.00,,,0.00,Rainwise IP-100,2013-07-04 10:04:00,
2013-07-04 04:09:00,59.0,47.0,25.68,SSE,157,1.9,5.8,63,0.00,,,0.00,Rainwise IP-100,2013-07-04 10:09:00,
2013-07-04 04:14:00,59.0,47.0,25.68,ESE,112,3.5,6.8,63,0.00,,,0.00,Rainwise IP-100,2013-07-04 10:14:00,
2013-07-04 04:19:00,59.1,47.0,25.68,SSE,157,4.4,5.8,63,0.00,,,0.00,Rainwise IP-100,2013-07-04 10:19:00,
2013-07-04 04:24:00,59.2,46.0,25.68,SSE,157,6.8,6.8,62,0.00,,,0.00,Rainwise IP-100,2013-07-04 10:24:00,
2013-07-04 04:29:00,59.2,46.0,25.68,SSE,157,7.9,7.9,62,0.00,,,0.00,Rainwise IP-100,2013-07-04 10:29:00,
2013-07-04 04:34:00,59.1,46.0,25.69,SSE,157,3.7,8.6,62,0.00,,,0.00,Rainwise IP-100,2013-07-04 10:34:00,
2013-07-04 04:39:00,59.0,46.0,25.68,SSE,157,2.1,6.5,62,0.00,,,0.00,Rainwise IP-100,2013-07-04 10:39:00,
2013-07-04 04:44:00,58.9,47.0,25.68,SSE,157,4.7,6.5,63,0.00,,,0.00,Rainwise IP-100,2013-07-04 10:44:00,
2013-07-04 04:49:00,58.9,47.0,25.68,SSE,157,4.7,6.8,63,0.00,,,0.00,Rainwise IP-100,2013-07-04 10:49:00,
2013-07-04 04:54:00,58.7,47.0,25.68,SSE,157,1.6,6.8,63,0.00,,,0.00,Rainwise IP-100,2013-07-04 10:54:00,
2013-07-04 04:59:00,58.6,47.0,25.68,SE,135,3.3,7.2,64,0.00,,,0.00,Rainwise IP-100,2013-07-04 10:59:00,
2013-07-04 05:04:00,58.5,47.0,25.68,ESE,112,5.4,5.4,64,0.00,,,0.00,Rainwise IP-100,2013-07-04 11:04:00,
2013-07-04 05:09:00,58.4,46.0,25.68,SSE,157,3.5,6.8,64,0.00,,,0.00,Rainwise IP-100,2013-07-04 11:09:00,
2013-07-04 05:14:00,58.4,46.0,25.68,SE,135,3.7,7.0,64,0.00,,,0.00,Rainwise IP-100,2013-07-04 11:14:00,
2013-07-04 05:19:00,58.2,46.0,25.68,SE,135,2.6,5.6,64,0.00,,,0.00,Rainwise IP-100,2013-07-04 11:19:00,
2013-07-04 05:24:00,57.9,46.0,25.68,ESE,112,3.5,6.5,64,0.00,,,0.00,Rainwise IP-100,2013-07-04 11:24:00,
2013-07-04 05:29:00,57.9,47.0,25.68,SSE,157,2.6,6.1,65,0.00,,,0.00,Rainwise IP-100,2013-07-04 11:29:00,
2013-07-04 05:34:00,57.8,47.0,25.68,ESE,112,1.9,5.4,65,0.00,,,0.00,Rainwise IP-100,2013-07-04 11:34:00,
2013-07-04 05:39:00,57.7,46.0,25.68,SSE,157,1.4,4.7,65,0.00,,,0.00,Rainwise IP-100,2013-07-04 11:39:00,
2013-07-04 05:44:00,57.5,47.0,25.68,SSW,202,0.0,4.4,66,0.00,,,0.00,Rainwise IP-100,2013-07-04 11:44:00,
2013-07-04 05:49:00,57.4,47.0,25.69,ESE,112,1.4,1.4,66,0.00,,,0.00,Rainwise IP-100,2013-07-04 11:49:00,
2013-07-04 05:54:00,57.1,46.0,25.69,ENE,67,0.0,4.0,66,0.00,,,0.00,Rainwise IP-100,2013-07-04 11:54:00,
2013-07-04 05:59:00,57.0,46.0,25.69,ENE,67,1.4,1.6,67,0.00,,,0.00,Rainwise IP-100,2013-07-04 11:59:00,
2013-07-04 06:04:00,57.2,46.0,25.69,ENE,67,0.0,2.3,67,0.00,,,0.00,Rainwise IP-100,2013-07-04 12:04:00,
2013-07-04 06:09:00,57.3,47.0,25.68,ESE,112,4.2,4.4,67,0.00,,,0.00,Rainwise IP-100,2013-07-04 12:09:00,
2013-07-04 06:14:00,57.6,47.0,25.68,ESE,112,3.5,5.4,66,0.00,,,0.00,Rainwise IP-100,2013-07-04 12:14:00,
2013-07-04 06:19:00,57.7,47.0,25.69,East,90,1.2,4.9,66,0.00,,,0.00,Rainwise IP-100,2013-07-04 12:19:00,
2013-07-04 06:24:00,57.9,47.0,25.68,East,90,1.9,3.5,65,0.00,,,0.00,Rainwise IP-100,2013-07-04 12:24:00,
2013-07-04 06:29:00,58.0,47.0,25.68,ESE,112,3.5,5.1,65,0.00,,,0.00,Rainwise IP-100,2013-07-04 12:29:00,
2013-07-04 06:34:00,58.3,47.0,25.69,ESE,112,3.0,4.7,65,0.00,,,0.00,Rainwise IP-100,2013-07-04 12:34:00,
2013-07-04 06:39:00,58.8,47.5,25.69,ESE,112,0.0,3.5,65,0.00,,,0.00,Rainwise IP-100,2013-07-04 12:39:00,
2013-07-04 06:44:00,59.2,47.0,25.69,SSE,157,1.6,2.8,64,0.00,,,0.00,Rainwise IP-100,2013-07-04 12:44:00,
2013-07-04 06:49:00,59.3,47.0,25.69,ESE,112,1.2,5.8,63,0.00,,,0.00,Rainwise IP-100,2013-07-04 12:49:00,
2013-07-04 06:54:00,59.6,47.0,25.69,SSE,157,2.1,4.9,63,0.00,,,0.00,Rainwise IP-100,2013-07-04 12:54:00,
2013-07-04 06:59:00,60.1,47.0,25.69,SSE,157,0.0,5.1,62,0.00,,,0.00,Rainwise IP-100,2013-07-04 12:59:00,
2013-07-04 07:04:00,60.7,47.0,25.69,SSE,157,3.5,4.4,61,0.00,,,0.00,Rainwise IP-100,2013-07-04 13:04:00,
2013-07-04 07:09:00,61.1,47.5,25.69,South,180,4.4,4.9,61,0.00,,,0.00,Rainwise IP-100,2013-07-04 13:09:00,
2013-07-04 07:14:00,61.1,47.0,25.69,SSE,157,2.3,8.2,60,0.00,,,0.00,Rainwise IP-100,2013-07-04 13:14:00,
2013-07-04 07:19:00,61.4,47.5,25.69,ESE,112,2.6,6.8,60,0.00,,,0.00,Rainwise IP-100,2013-07-04 13:19:00,
2013-07-04 07:24:00,61.7,47.5,25.69,SSE,157,4.7,6.5,60,0.00,,,0.00,Rainwise IP-100,2013-07-04 13:24:00,
2013-07-04 07:29:00,61.9,48.0,25.69,South,180,6.1,7.5,60,0.00,,,0.00,Rainwise IP-100,2013-07-04 13:29:00,
2013-07-04 07:34:00,62.4,48.0,25.69,SSE,157,5.1,7.5,59,0.00,,,0.00,Rainwise IP-100,2013-07-04 13:34:00,
2013-07-04 07:39:00,62.8,48.0,25.69,SSE,157,2.1,7.0,59,0.00,,,0.00,Rainwise IP-100,2013-07-04 13:39:00,
2013-07-04 07:44:00,63.1,48.0,25.69,SSE,157,4.0,6.1,58,0.00,,,0.00,Rainwise IP-100,2013-07-04 13:44:00,
2013-07-04 07:49:00,63.6,48.0,25.69,SSE,157,4.9,7.0,58,0.00,,,0.00,Rainwise IP-100,2013-07-04 13:49:00,
2013-07-04 07:54:00,63.9,49.0,25.69,ESE,112,4.4,8.2,58,0.00,,,0.00,Rainwise IP-100,2013-07-04 13:54:00,
2013-07-04 07:59:00,64.0,48.0,25.69,SSE,157,4.7,9.6,57,0.00,,,0.00,Rainwise IP-100,2013-07-04 13:59:00,
2013-07-04 08:04:00,64.5,49.0,25.69,SSE,157,6.3,8.9,57,0.00,,,0.00,Rainwise IP-100,2013-07-04 14:04:00,
2013-07-04 08:09:00,64.9,49.0,25.69,SE,135,1.6,10.5,56,0.00,,,0.00,Rainwise IP-100,2013-07-04 14:09:00,
2013-07-04 08:14:00,65.1,49.0,25.69,South,180,6.1,10.3,56,0.00,,,0.00,Rainwise IP-100,2013-07-04 14:14:00,
2013-07-04 08:19:00,65.6,49.0,25.69,ESE,112,2.6,9.6,56,0.00,,,0.00,Rainwise IP-100,2013-07-04 14:19:00,
2013-07-04 08:24:00,66.0,49.0,25.70,SSE,157,5.1,8.6,55,0.00,,,0.00,Rainwise IP-100,2013-07-04 14:24:00,
2013-07-04 08:29:00,66.6,50.0,25.70,SSW,202,2.3,6.3,54,0.00,,,0.00,Rainwise IP-100,2013-07-04 14:29:00,
2013-07-04 08:34:00,67.0,50.0,25.70,South,180,2.6,5.4,54,0.00,,,0.00,Rainwise IP-100,2013-07-04 14:34:00,
2013-07-04 08:39:00,67.6,50.0,25.70,SSW,202,3.7,7.2,53,0.00,,,0.00,Rainwise IP-100,2013-07-04 14:39:00,
2013-07-04 08:44:00,68.2,50.0,25.70,SSE,157,2.8,6.3,52,0.00,,,0.00,Rainwise IP-100,2013-07-04 14:44:00,
2013-07-04 08:49:00,68.4,50.0,25.70,SSW,202,2.6,7.7,52,0.00,,,0.00,Rainwise IP-100,2013-07-04 14:49:00,
2013-07-04 08:54:00,68.3,50.0,25.70,SSW,202,4.4,5.1,51,0.00,,,0.00,Rainwise IP-100,2013-07-04 14:54:00,
2013-07-04 08:59:00,68.2,49.0,25.70,SSW,202,1.6,6.1,51,0.00,,,0.00,Rainwise IP-100,2013-07-04 14:59:00,
2013-07-04 09:04:00,69.1,50.0,25.70,SE,135,0.0,4.9,51,0.00,,,0.00,Rainwise IP-100,2013-07-04 15:04:00,
2013-07-04 09:09:00,70.0,50.0,25.70,South,180,3.0,4.7,49,0.00,,,0.00,Rainwise IP-100,2013-07-04 15:09:00,
2013-07-04 09:14:00,70.6,50.0,25.70,SSW,202,2.3,4.2,48,0.00,,,0.00,Rainwise IP-100,2013-07-04 15:14:00,
2013-07-04 09:19:00,70.8,50.0,25.70,SSW,202,0.0,5.4,47,0.00,,,0.00,Rainwise IP-100,2013-07-04 15:19:00,
2013-07-04 09:25:00,70.9,50.0,25.70,SSW,202,2.1,6.1,47,0.00,,,0.00,Rainwise IP-100,2013-07-04 15:25:00,
2013-07-04 09:30:00,71.1,50.0,25.71,SSE,157,0.0,4.9,47,0.00,,,0.00,Rainwise IP-100,2013-07-04 15:30:00,
2013-07-04 09:35:00,72.6,50.5,25.70,SE,135,1.9,2.8,46,0.00,,,0.00,Rainwise IP-100,2013-07-04 15:35:00,
2013-07-04 09:40:00,73.5,51.0,25.70,SSW,202,3.7,7.0,45,0.00,,,0.00,Rainwise IP-100,2013-07-04 15:40:00,
2013-07-04 09:45:00,73.8,50.5,25.70,SSW,202,0.0,4.2,44,0.00,,,0.00,Rainwise IP-100,2013-07-04 15:45:00,
2013-07-04 09:50:00,75.1,50.5,25.70,SSE,157,0.0,3.7,42,0.00,,,0.00,Rainwise IP-100,2013-07-04 15:50:00,
2013-07-04 09:55:00,75.6,50.5,25.70,SSW,202,0.0,3.7,42,0.00,,,0.00,Rainwise IP-100,2013-07-04 15:55:00,
2013-07-04 10:00:00,75.6,50.0,25.70,South,180,2.6,6.8,41,0.00,,,0.00,Rainwise IP-100,2013-07-04 16:00:00,
2013-07-04 10:05:00,75.3,50.5,25.70,WSW,247,0.0,5.6,42,0.00,,,0.00,Rainwise IP-100,2013-07-04 16:05:00,
2013-07-04 10:10:00,76.2,50.5,25.70,SW,225,6.3,6.3,41,0.00,,,0.00,Rainwise IP-100,2013-07-04 16:10:00,
2013-07-04 10:15:00,76.1,50.5,25.70,South,180,0.0,6.8,41,0.00,,,0.00,Rainwise IP-100,2013-07-04 16:15:00,
2013-07-04 10:20:00,76.2,50.5,25.70,South,180,5.6,6.3,41,0.00,,,0.00,Rainwise IP-100,2013-07-04 16:20:00,
2013-07-04 10:25:00,76.8,50.5,25.70,SE,135,3.0,6.5,40,0.00,,,0.00,Rainwise IP-100,2013-07-04 16:25:00,
2013-07-04 10:30:00,76.7,50.5,25.70,SSW,202,2.8,9.1,40,0.00,,,0.00,Rainwise IP-100,2013-07-04 16:30:00,
2013-07-04 10:35:00,77.1,51.0,25.70,SSE,157,6.1,7.5,40,0.00,,,0.00,Rainwise IP-100,2013-07-04 16:35:00,
2013-07-04 10:40:00,77.3,51.0,25.69,ESE,112,6.1,8.6,40,0.00,,,0.00,Rainwise IP-100,2013-07-04 16:40:00,
2013-07-04 10:45:00,77.5,51.0,25.70,SSE,157,4.7,11.0,40,0.00,,,0.00,Rainwise IP-100,2013-07-04 16:45:00,
2013-07-04 10:50:00,77.7,51.0,25.69,SSE,157,6.3,10.7,40,0.00,,,0.00,Rainwise IP-100,2013-07-04 16:50:00,
2013-07-04 10:55:00,77.9,52.0,25.69,ESE,112,3.7,8.4,40,0.00,,,0.00,Rainwise IP-100,2013-07-04 16:55:00,
2013-07-04 11:00:00,78.5,52.0,25.69,SSE,157,11.7,12.1,39,0.00,,,0.00,Rainwise IP-100,2013-07-04 17:00:00,
2013-07-04 11:05:00,78.5,51.0,25.69,SSE,157,5.4,15.2,38,0.00,,,0.00,Rainwise IP-100,2013-07-04 17:05:00,
2013-07-04 11:10:00,78.2,50.5,25.69,SSE,157,6.5,16.1,38,0.00,,,0.00,Rainwise IP-100,2013-07-04 17:10:00,
2013-07-04 11:15:00,78.5,50.5,25.69,SSE,157,10.3,15.9,37,0.00,,,0.00,Rainwise IP-100,2013-07-04 17:15:00,
2013-07-04 11:20:00,79.2,50.0,25.68,SSE,157,5.6,13.8,36,0.00,,,0.00,Rainwise IP-100,2013-07-04 17:20:00,
2013-07-04 11:25:00,79.6,50.0,25.68,SSE,157,11.4,14.5,35,0.00,,,0.00,Rainwise IP-100,2013-07-04 17:25:00,
2013-07-04 11:30:00,79.5,49.0,25.69,SSE,157,8.6,17.7,34,0.00,,,0.00,Rainwise IP-100,2013-07-04 17:30:00,
2013-07-04 11:35:00,79.8,48.0,25.68,SSE,157,5.4,16.3,33,0.00,,,0.00,Rainwise IP-100,2013-07-04 17:35:00,
2013-07-04 11:40:00,80.3,48.0,25.68,South,180,14.2,14.2,33,0.00,,,0.00,Rainwise IP-100,2013-07-04 17:40:00,
2013-07-04 11:45:00,80.5,48.0,25.68,SSE,157,13.8,14.7,32,0.00,,,0.00,Rainwise IP-100,2013-07-04 17:45:00,
2013-07-04 11:50:00,80.7,47.5,25.68,South,180,7.7,17.5,31,0.00,,,0.00,Rainwise IP-100,2013-07-04 17:50:00,
2013-07-04 11:55:00,81.1,46.0,25.68,South,180,15.6,18.0,29,0.00,,,0.00,Rainwise IP-100,2013-07-04 17:55:00,
2013-07-04 12:00:00,81.3,46.0,25.68,South,180,6.3,17.7,29,0.00,,,0.00,Rainwise IP-100,2013-07-04 18:00:00,
2013-07-04 12:05:00,81.6,47.5,25.68,South,180,11.2,13.5,30,0.00,,,0.00,Rainwise IP-100,2013-07-04 18:05:00,
2013-07-04 12:10:00,82.0,47.0,25.68,SSE,157,8.4,14.7,29,0.00,,,0.00,Rainwise IP-100,2013-07-04 18:10:00,
2013-07-04 12:15:00,81.8,47.0,25.68,SSE,157,5.4,15.4,29,0.00,,,0.00,Rainwise IP-100,2013-07-04 18:15:00,
2013-07-04 12:20:00,81.8,47.0,25.67,WSW,247,8.2,15.4,29,0.00,,,0.00,Rainwise IP-100,2013-07-04 18:20:00,
2013-07-04 12:25:00,82.4,47.0,25.67,SSE,157,2.1,15.2,29,0.00,,,0.00,Rainwise IP-100,2013-07-04 18:25:00,
2013-07-04 12:30:00,82.7,47.0,25.67,WSW,247,4.4,13.5,28,0.00,,,0.00,Rainwise IP-100,2013-07-04 18:30:00,
2013-07-04 12:35:00,82.8,47.0,25.67,SSE,157,10.5,14.5,28,0.00,,,0.00,Rainwise IP-100,2013-07-04 18:35:00,
2013-07-04 12:40:00,83.3,47.0,25.67,SSE,157,11.2,13.1,28,0.00,,,0.00,Rainwise IP-100,2013-07-04 18:40:00,
2013-07-04 12:45:00,83.6,46.0,25.67,ESE,112,2.3,14.0,27,0.00,,,0.00,Rainwise IP-100,2013-07-04 18:45:00,
2013-07-04 12:50:00,83.8,47.0,25.67,SSW,202,7.2,14.7,27,0.00,,,0.00,Rainwise IP-100,2013-07-04 18:50:00,
2013-07-04 12:55:00,83.9,47.0,25.67,SE,135,6.8,15.4,27,0.00,,,0.00,Rainwise IP-100,2013-07-04 18:55:00,
2013-07-04 13:00:00,83.9,47.0,25.67,SSW,202,8.2,15.4,27,0.00,,,0.00,Rainwise IP-100,2013-07-04 19:00:00,
2013-07-04 13:05:00,83.6,45.0,25.66,SSW,202,0.0,13.5,26,0.00,,,0.00,Rainwise IP-100,2013-07-04 19:05:00,
2013-07-04 13:10:00,84.0,45.0,25.67,SSE,157,6.5,13.1,25,0.00,,,0.00,Rainwise IP-100,2013-07-04 19:10:00,
2013-07-04 13:15:00,84.7,46.0,25.66,SSE,157,5.8,16.1,26,0.00,,,0.00,Rainwise IP-100,2013-07-04 19:15:00,
2013-07-04 13:20:00,84.9,46.0,25.66,South,180,3.7,12.6,26,0.00,,,0.00,Rainwise IP-100,2013-07-04 19:20:00,
2013-07-04 13:25:00,84.9,46.0,25.66,SSE,157,7.7,13.1,26,0.00,,,0.00,Rainwise IP-100,2013-07-04 19:25:00,
2013-07-04 13:30:00,85.0,45.0,25.66,South,180,2.3,15.9,25,0.00,,,0.00,Rainwise IP-100,2013-07-04 19:30:00,
2013-07-04 13:35:00,84.9,45.0,25.65,SSE,157,10.0,13.1,25,0.00,,,0.00,Rainwise IP-100,2013-07-04 19:35:00,
2013-07-04 13:40:00,84.7,44.0,25.66,SSW,202,4.0,14.9,24,0.00,,,0.00,Rainwise IP-100,2013-07-04 19:40:00,
2013-07-04 13:45:00,85.1,44.0,25.66,WNW,292,3.5,10.5,24,0.00,,,0.00,Rainwise IP-100,2013-07-04 19:45:00,
2013-07-04 13:50:00,85.3,44.0,25.66,SSE,157,10.5,15.2,24,0.00,,,0.00,Rainwise IP-100,2013-07-04 19:50:00,
2013-07-04 13:55:00,85.2,44.0,25.65,SE,135,4.2,12.6,24,0.00,,,0.00,Rainwise IP-100,2013-07-04 19:55:00,
2013-07-04 14:00:00,85.5,45.0,25.65,SSE,157,4.7,10.7,24,0.00,,,0.00,Rainwise IP-100,2013-07-04 20:00:00,
2013-07-04 14:05:00,85.6,45.0,25.65,South,180,2.6,9.6,24,0.00,,,0.00,Rainwise IP-100,2013-07-04 20:05:00,
2013-07-04 14:10:00,86.1,44.0,25.66,NNE,22,2.6,6.3,23,0.00,,,0.00,Rainwise IP-100,2013-07-04 20:10:00,
2013-07-04 14:15:00,86.4,43.0,25.65,ENE,67,3.5,6.5,22,0.00,,,0.00,Rainwise IP-100,2013-07-04 20:15:00,
2013-07-04 14:20:00,86.6,43.0,25.65,SSE,157,5.6,14.5,22,0.00,,,0.00,Rainwise IP-100,2013-07-04 20:20:00,
2013-07-04 14:25:00,86.9,43.0,25.65,SSE,157,8.9,12.8,22,0.00,,,0.00,Rainwise IP-100,2013-07-04 20:25:00,
2013-07-04 14:30:00,86.2,44.0,25.65,ENE,67,8.2,9.8,23,0.00,,,0.00,Rainwise IP-100,2013-07-04 20:30:00,
2013-07-04 14:35:00,85.8,44.0,25.65,SSE,157,4.0,8.4,23,0.00,,,0.00,Rainwise IP-100,2013-07-04 20:35:00,
2013-07-04 14:40:00,86.2,44.0,25.65,South,180,0.0,9.1,23,0.00,,,0.00,Rainwise IP-100,2013-07-04 20:40:00,
2013-07-04 14:45:00,86.6,43.0,25.64,ESE,112,4.9,9.1,22,0.00,,,0.00,Rainwise IP-100,2013-07-04 20:45:00,
2013-07-04 14:50:00,87.3,44.0,25.64,ESE,112,4.4,7.7,22,0.00,,,0.00,Rainwise IP-100,2013-07-04 20:50:00,
2013-07-04 14:55:00,87.2,42.0,25.64,ESE,112,4.4,10.0,21,0.00,,,0.00,Rainwise IP-100,2013-07-04 20:55:00,
2013-07-04 15:00:00,86.9,43.0,25.65,ESE,112,4.9,10.0,22,0.00,,,0.00,Rainwise IP-100,2013-07-04 21:00:00,
2013-07-04 15:05:00,86.6,43.0,25.64,ENE,67,5.8,12.1,22,0.00,,,0.00,Rainwise IP-100,2013-07-04 21:05:00,
2013-07-04 15:10:00,86.8,43.0,25.64,SSE,157,1.2,10.0,22,0.00,,,0.00,Rainwise IP-100,2013-07-04 21:10:00,
2013-07-04 15:15:00,87.6,43.0,25.64,ESE,112,8.6,8.6,21,0.00,,,0.00,Rainwise IP-100,2013-07-04 21:15:00,
2013-07-04 15:20:00,87.5,43.0,25.64,East,90,0.0,9.3,21,0.00,,,0.00,Rainwise IP-100,2013-07-04 21:20:00,
2013-07-04 15:25:00,87.7,43.0,25.63,East,90,8.6,8.6,21,0.00,,,0.00,Rainwise IP-100,2013-07-04 21:25:00,
2013-07-04 15:30:00,87.6,41.0,25.63,ENE,67,8.9,10.3,20,0.00,,,0.00,Rainwise IP-100,2013-07-04 21:30:00,
2013-07-04 15:35:00,87.1,41.0,25.64,ESE,112,5.1,9.8,20,0.00,,,0.00,Rainwise IP-100,2013-07-04 21:35:00,
2013-07-04 15:40:00,87.9,42.0,25.64,SSE,157,2.3,6.3,20,0.00,,,0.00,Rainwise IP-100,2013-07-04 21:40:00,
2013-07-04 15:45:00,88.2,42.0,25.64,SSE,157,2.1,8.6,20,0.00,,,0.00,Rainwise IP-100,2013-07-04 21:45:00,
2013-07-04 15:50:00,87.9,42.0,25.63,SSW,202,3.7,5.8,20,0.00,,,0.00,Rainwise IP-100,2013-07-04 21:50:00,
2013-07-04 15:55:00,88.6,42.0,25.63,SE,135,0.0,7.9,20,0.00,,,0.00,Rainwise IP-100,2013-07-04 21:55:00,
2013-07-04 16:00:00,90.2,42.0,25.63,NNE,22,0.0,5.6,19,0.00,,,0.00,Rainwise IP-100,2013-07-04 22:00:00,
2013-07-04 16:05:00,90.7,41.0,25.63,ENE,67,1.4,4.9,18,0.00,,,0.00,Rainwise IP-100,2013-07-04 22:05:00,
2013-07-04 16:10:00,90.4,41.0,25.63,WSW,247,0.0,7.2,18,0.00,,,0.00,Rainwise IP-100,2013-07-04 22:10:00,
2013-07-04 16:15:00,89.9,41.0,25.62,ENE,67,7.9,11.0,18,0.00,,,0.00,Rainwise IP-100,2013-07-04 22:15:00,
2013-07-04 16:20:00,88.6,41.0,25.62,East,90,3.7,10.5,19,0.00,,,0.00,Rainwise IP-100,2013-07-04 22:20:00,
2013-07-04 16:25:00,88.2,41.0,25.62,NE,45,5.8,9.8,19,0.00,,,0.00,Rainwise IP-100,2013-07-04 22:25:00,
2013-07-04 16:30:00,88.4,41.0,25.62,East,90,4.7,10.0,19,0.00,,,0.00,Rainwise IP-100,2013-07-04 22:30:00,
2013-07-04 16:35:00,88.2,41.0,25.62,NNE,22,7.0,14.2,19,0.00,,,0.00,Rainwise IP-100,2013-07-04 22:35:00,
2013-07-04 16:40:00,88.3,41.0,25.62,NE,45,6.8,9.8,19,0.00,,,0.00,Rainwise IP-100,2013-07-04 22:40:00,
2013-07-04 16:45:00,88.5,41.0,25.62,NNE,22,5.4,11.2,19,0.00,,,0.00,Rainwise IP-100,2013-07-04 22:45:00,
2013-07-04 16:50:00,88.1,40.0,25.61,SSE,157,1.9,8.9,19,0.00,,,0.00,Rainwise IP-100,2013-07-04 22:50:00,
2013-07-04 16:55:00,87.9,40.0,25.61,ESE,112,2.1,4.9,19,0.00,,,0.00,Rainwise IP-100,2013-07-04 22:55:00,
2013-07-04 17:00:00,88.2,39.0,25.61,ENE,67,2.8,4.4,18,0.00,,,0.00,Rainwise IP-100,2013-07-04 23:00:00,
2013-07-04 17:05:00,88.8,40.0,25.60,ENE,67,6.3,12.1,18,0.00,,,0.00,Rainwise IP-100,2013-07-04 23:05:00,
2013-07-04 17:10:00,88.9,40.0,25.60,ESE,112,7.5,15.2,18,0.00,,,0.00,Rainwise IP-100,2013-07-04 23:10:00,
2013-07-04 17:15:00,88.7,40.0,25.60,ENE,67,6.5,10.3,18,0.00,,,0.00,Rainwise IP-100,2013-07-04 23:15:00,
2013-07-04 17:20:00,88.8,41.0,25.60,ENE,67,6.8,14.0,19,0.00,,,0.00,Rainwise IP-100,2013-07-04 23:20:00,
2013-07-04 17:25:00,88.8,41.0,25.60,NNE,22,8.9,13.5,19,0.00,,,0.00,Rainwise IP-100,2013-07-04 23:25:00,
2013-07-04 17:30:00,88.5,39.0,25.60,ENE,67,4.9,11.9,18,0.00,,,0.00,Rainwise IP-100,2013-07-04 23:30:00,
2013-07-04 17:36:00,88.6,39.0,25.60,East,90,0.0,6.3,18,0.00,,,0.00,Rainwise IP-100,2013-07-04 23:36:00,
2013-07-04 17:41:00,88.9,40.0,25.60,ESE,112,4.9,5.8,18,0.00,,,0.00,Rainwise IP-100,2013-07-04 23:41:00,
2013-07-04 17:46:00,89.1,40.0,25.60,South,180,6.5,6.5,18,0.00,,,0.00,Rainwise IP-100,2013-07-04 23:46:00,
2013-07-04 17:51:00,89.1,40.0,25.60,SE,135,1.9,8.4,18,0.00,,,0.00,Rainwise IP-100,2013-07-04 23:51:00,
2013-07-04 17:56:00,89.0,40.0,25.60,ESE,112,2.3,8.4,18,0.00,,,0.00,Rainwise IP-100,2013-07-04 23:56:00,
2013-07-04 18:01:00,89.4,40.0,25.60,ESE,112,5.6,5.6,18,0.00,,,0.00,Rainwise IP-100,2013-07-05 00:01:00,
2013-07-04 18:06:00,89.5,40.0,25.60,ENE,67,2.1,6.1,18,0.00,,,0.00,Rainwise IP-100,2013-07-05 00:06:00,
2013-07-04 18:11:00,89.2,40.0,25.60,ESE,112,3.5,7.5,18,0.00,,,0.00,Rainwise IP-100,2013-07-05 00:11:00,
2013-07-04 18:16:00,89.1,40.0,25.60,SE,135,4.2,7.7,18,0.00,,,0.00,Rainwise IP-100,2013-07-05 00:16:00,
2013-07-04 18:21:00,88.9,40.0,25.60,SSW,202,9.3,14.5,18,0.00,,,0.00,Rainwise IP-100,2013-07-05 00:21:00,
2013-07-04 18:26:00,88.6,41.0,25.60,ESE,112,9.1,10.3,19,0.00,,,0.00,Rainwise IP-100,2013-07-05 00:26:00,
2013-07-04 18:31:00,88.5,41.0,25.60,SSE,157,12.1,12.1,19,0.00,,,0.00,Rainwise IP-100,2013-07-05 00:31:00,
2013-07-04 18:36:00,88.3,41.0,25.60,SE,135,7.2,12.8,19,0.00,,,0.00,Rainwise IP-100,2013-07-05 00:36:00,
2013-07-04 18:41:00,88.2,41.0,25.60,SE,135,3.0,12.1,19,0.00,,,0.00,Rainwise IP-100,2013-07-05 00:41:00,
2013-07-04 18:46:00,88.2,41.0,25.61,SSE,157,3.3,9.8,19,0.00,,,0.00,Rainwise IP-100,2013-07-05 00:46:00,
2013-07-04 18:51:00,88.3,41.0,25.61,SE,135,2.1,10.0,19,0.00,,,0.00,Rainwise IP-100,2013-07-05 00:51:00,
2013-07-04 18:56:00,88.1,40.0,25.60,SSE,157,7.7,12.1,19,0.00,,,0.00,Rainwise IP-100,2013-07-05 00:56:00,
2013-07-04 19:01:00,88.0,40.0,25.60,SSE,157,7.9,9.8,19,0.00,,,0.00,Rainwise IP-100,2013-07-05 01:01:00,
2013-07-04 19:06:00,88.0,40.0,25.60,SSE,157,10.7,11.9,19,0.00,,,0.00,Rainwise IP-100,2013-07-05 01:06:00,
2013-07-04 19:11:00,87.7,40.0,25.60,SSE,157,7.2,12.6,19,0.00,,,0.00,Rainwise IP-100,2013-07-05 01:11:00,
2013-07-04 19:16:00,87.4,40.0,25.61,SSE,157,8.4,14.9,19,0.00,,,0.00,Rainwise IP-100,2013-07-05 01:16:00,
2013-07-04 19:21:00,87.1,40.0,25.60,SSE,157,8.9,14.2,19,0.00,,,0.00,Rainwise IP-100,2013-07-05 01:21:00,
2013-07-04 19:26:00,87.0,40.0,25.60,South,180,6.8,14.2,19,0.00,,,0.00,Rainwise IP-100,2013-07-05 01:26:00,
2013-07-04 19:31:00,86.9,40.0,25.61,SSE,157,3.5,13.5,19,0.00,,,0.00,Rainwise IP-100,2013-07-05 01:31:00,
2013-07-04 19:36:00,86.7,39.0,25.61,South,180,7.2,14.5,19,0.00,,,0.00,Rainwise IP-100,2013-07-05 01:36:00,
2013-07-04 19:41:00,86.4,40.0,25.61,South,180,6.8,14.7,20,0.00,,,0.00,Rainwise IP-100,2013-07-05 01:41:00,
2013-07-04 19:46:00,86.0,40.0,25.61,SSE,157,7.7,14.0,20,0.00,,,0.00,Rainwise IP-100,2013-07-05 01:46:00,
2013-07-04 19:51:00,85.6,40.0,25.61,SSE,157,3.0,12.1,20,0.00,,,0.00,Rainwise IP-100,2013-07-05 01:51:00,
2013-07-04 19:56:00,85.3,39.0,25.61,SSE,157,6.8,12.4,20,0.00,,,0.00,Rainwise IP-100,2013-07-05 01:56:00,
2013-07-04 20:01:00,84.8,40.0,25.61,SE,135,4.7,8.6,21,0.00,,,0.00,Rainwise IP-100,2013-07-05 02:01:00,
2013-07-04 20:06:00,84.2,40.0,25.62,SSE,157,3.7,6.1,21,0.00,,,0.00,Rainwise IP-100,2013-07-05 02:06:00,
2013-07-04 20:11:00,83.6,41.0,25.61,SSE,157,3.0,5.1,22,0.00,,,0.00,Rainwise IP-100,2013-07-05 02:11:00,
2013-07-04 20:16:00,83.0,41.0,25.62,ESE,112,2.8,7.0,23,0.00,,,0.00,Rainwise IP-100,2013-07-05 02:16:00,
2013-07-04 20:21:00,82.3,41.0,25.62,SE,135,2.1,4.9,23,0.00,,,0.00,Rainwise IP-100,2013-07-05 02:21:00,
2013-07-04 20:26:00,81.7,41.0,25.61,SSE,157,3.7,4.9,24,0.00,,,0.00,Rainwise IP-100,2013-07-05 02:26:00,
2013-07-04 20:31:00,81.4,41.0,25.61,South,180,5.6,9.1,24,0.00,,,0.00,Rainwise IP-100,2013-07-05 02:31:00,
2013-07-04 20:36:00,81.1,41.0,25.62,SE,135,4.0,7.0,24,0.00,,,0.00,Rainwise IP-100,2013-07-05 02:36:00,
2013-07-04 20:41:00,80.7,42.0,25.62,SSE,157,5.8,8.6,25,0.00,,,0.00,Rainwise IP-100,2013-07-05 02:41:00,
2013-07-04 20:46:00,80.2,41.0,25.62,NE,45,1.9,8.6,25,0.00,,,0.00,Rainwise IP-100,2013-07-05 02:46:00,
2013-07-04 20:51:00,79.8,42.0,25.62,SSE,157,4.4,9.1,26,0.00,,,0.00,Rainwise IP-100,2013-07-05 02:51:00,
2013-07-04 20:56:00,79.4,41.0,25.62,SSE,157,4.2,6.8,26,0.00,,,0.00,Rainwise IP-100,2013-07-05 02:56:00,
2013-07-04 21:01:00,79.0,41.0,25.63,SSE,157,2.8,9.3,26,0.00,,,0.00,Rainwise IP-100,2013-07-05 03:01:00,
2013-07-04 21:06:00,78.7,42.0,25.63,SSE,157,2.8,9.8,27,0.00,,,0.00,Rainwise IP-100,2013-07-05 03:06:00,
2013-07-04 21:11:00,78.6,42.0,25.63,SSE,157,6.5,11.0,27,0.00,,,0.00,Rainwise IP-100,2013-07-05 03:11:00,
2013-07-04 21:16:00,78.8,42.0,25.63,SSE,157,8.9,14.2,27,0.00,,,0.00,Rainwise IP-100,2013-07-05 03:16:00,
2013-07-04 21:21:00,79.2,43.0,25.64,SSE,157,9.1,16.3,28,0.00,,,0.00,Rainwise IP-100,2013-07-05 03:21:00,
2013-07-04 21:26:00,79.2,43.0,25.64,SE,135,3.5,11.9,28,0.00,,,0.00,Rainwise IP-100,2013-07-05 03:26:00,
2013-07-04 21:31:00,78.9,43.0,25.64,SSE,157,4.0,15.9,28,0.00,,,0.00,Rainwise IP-100,2013-07-05 03:31:00,
2013-07-04 21:36:00,78.6,44.0,25.64,SSE,157,8.4,12.8,29,0.00,,,0.00,Rainwise IP-100,2013-07-05 03:36:00,
2013-07-04 21:41:00,78.4,44.0,25.65,SE,135,5.4,14.5,30,0.00,,,0.00,Rainwise IP-100,2013-07-05 03:41:00,
2013-07-04 21:46:00,78.1,44.0,25.64,SE,135,2.1,12.6,30,0.00,,,0.00,Rainwise IP-100,2013-07-05 03:46:00,
2013-07-04 21:51:00,77.9,44.0,25.64,SSE,157,6.1,12.6,30,0.00,,,0.00,Rainwise IP-100,2013-07-05 03:51:00,
2013-07-04 21:56:00,77.8,45.0,25.65,SE,135,7.5,11.9,31,0.00,,,0.00,Rainwise IP-100,2013-07-05 03:56:00,
2013-07-04 22:01:00,77.5,45.0,25.65,SSE,157,5.1,11.4,31,0.00,,,0.00,Rainwise IP-100,2013-07-05 04:01:00,
2013-07-04 22:06:00,77.3,44.0,25.65,SSE,157,9.3,13.3,31,0.00,,,0.00,Rainwise IP-100,2013-07-05 04:06:00,
2013-07-04 22:11:00,77.0,45.0,25.66,SSE,157,2.8,12.6,32,0.00,,,0.00,Rainwise IP-100,2013-07-05 04:11:00,
2013-07-04 22:16:00,76.8,45.0,25.66,SSE,157,5.4,11.7,32,0.00,,,0.00,Rainwise IP-100,2013-07-05 04:16:00,
2013-07-04 22:21:00,76.5,45.0,25.66,SSE,157,4.7,11.4,33,0.00,,,0.00,Rainwise IP-100,2013-07-05 04:21:00,
2013-07-04 22:26:00,76.1,45.0,25.66,SE,135,5.1,11.7,33,0.00,,,0.00,Rainwise IP-100,2013-07-05 04:26:00,
2013-07-04 22:31:00,75.9,45.0,25.66,South,180,7.5,9.3,33,0.00,,,0.00,Rainwise IP-100,2013-07-05 04:31:00,
2013-07-04 22:36:00,75.7,45.0,25.66,SSE,157,1.6,8.9,34,0.00,,,0.00,Rainwise IP-100,2013-07-05 04:36:00,
2013-07-04 22:41:00,75.4,45.0,25.66,SSE,157,9.1,9.1,34,0.00,,,0.00,Rainwise IP-100,2013-07-05 04:41:00,
2013-07-04 22:46:00,75.1,46.0,25.65,SSE,157,2.6,10.5,35,0.00,,,0.00,Rainwise IP-100,2013-07-05 04:46:00,
2013-07-04 22:51:00,75.0,46.0,25.65,SSE,157,3.5,10.7,35,0.00,,,0.00,Rainwise IP-100,2013-07-05 04:51:00,
2013-07-04 22:56:00,74.9,47.0,25.66,SSE,157,6.3,12.6,36,0.00,,,0.00,Rainwise IP-100,2013-07-05 04:56:00,
2013-07-04 23:01:00,74.7,46.0,25.66,SSE,157,4.4,11.0,36,0.00,,,0.00,Rainwise IP-100,2013-07-05 05:01:00,
2013-07-04 23:06:00,74.4,47.0,25.66,SSE,157,5.1,9.3,37,0.00,,,0.00,Rainwise IP-100,2013-07-05 05:06:00,
2013-07-04 23:11:00,74.1,46.0,25.65,SE,135,5.6,9.3,37,0.00,,,0.00,Rainwise IP-100,2013-07-05 05:11:00,
2013-07-04 23:16:00,73.8,47.0,25.65,South,180,10.5,10.5,38,0.00,,,0.00,Rainwise IP-100,2013-07-05 05:16:00,
2013-07-04 23:21:00,73.5,47.0,25.65,SSE,157,7.5,10.5,38,0.00,,,0.00,Rainwise IP-100,2013-07-05 05:21:00,
2013-07-04 23:26:00,73.3,47.0,25.65,SSE,157,3.5,8.9,39,0.00,,,0.00,Rainwise IP-100,2013-07-05 05:26:00,
2013-07-04 23:31:00,73.2,47.5,25.65,SSE,157,8.9,11.0,40,0.00,,,0.00,Rainwise IP-100,2013-07-05 05:31:00,
2013-07-04 23:36:00,73.0,47.5,25.65,ESE,112,3.3,11.2,40,0.00,,,0.00,Rainwise IP-100,2013-07-05 05:36:00,
2013-07-04 23:41:00,72.9,47.5,25.65,SE,135,6.8,11.2,40,0.00,,,0.00,Rainwise IP-100,2013-07-05 05:41:00,
2013-07-04 23:46:00,72.7,47.5,25.64,ESE,112,2.8,9.8,41,0.00,,,0.00,Rainwise IP-100,2013-07-05 05:46:00,
2013-07-04 23:51:00,72.6,47.5,25.64,SSE,157,7.5,11.2,41,0.00,,,0.00,Rainwise IP-100,2013-07-05 05:51:00,
2013-07-04 23:56:00,72.5,48.0,25.64,SSE,157,2.1,12.8,42,0.00,,,0.00,Rainwise IP-100,2013-07-05 05:56:00,